Tracking 19242 objects as of 20-Sep-2018
HD Live streaming from Space Station
objects crossing your sky now

FENGYUN 1C DEB

Track FENGYUN 1C DEB now!
10-day predictions


NORAD ID: 32422
Int'l Code: 1999-025DAJ
Perigee: 694.6 km
Apogee: 1,143.6 km
Inclination: 97.8 °
Period: 103.2 minutes
Semi major axis: 7290 km
RCS: 0.0061 m2 (small)
Launch date: May 10, 1999
Source: People's Republic of China (PRC)
Launch site: Taiyaun Space Center, China (TSC)

Note: This is SATELLITE DEBRIS
aabbcc
Your satellite tracking list
Your tracking list is empty




NASA's NSSDC Master Catalog

Two Line Element Set (TLE):
1 32422U 99025DAJ 18256.57480930 +.00000203 +00000-0 +12108-3 0  9996
2 32422 097.8492 022.0226 0307993 250.1527 106.6201 13.94770475262082
Source of the keplerian elements: AFSPC